Weather in Pleshcheyevo Lake

Russia / Yaroslavl Oblast     56°46′14″N   38°47′01″E
temp.,
°C
wind,
m/s
gust,
m/s
humid.,
%
clouds,
%
prec.,
mm/h
press.,
hPa
HPBL,
m
8 may, sat
sat800:00+6sse31075100 0.0 1012186
03:00+6sse41274100 0.0 1012258
06:00+7sse41370100 0.0 1011446
09:00+9s61480100 0.2 10101317
12:00+8sse61391100 1.7 10091243
15:00+8sse71493100 5.4 10061338
18:00+8se51295100 6.4 10041018
21:00+7ese2599100 12.2 1002187
9 may, sun
sun900:00+8nnw2599100 3.9 1000177
03:00+6nnw41096100 4.9 1001658
06:00+3nw61498100 5.1 1005705
09:00+3nw71396100 9.8 1008961
12:00+6wnw71083100 0.1 10121222
15:00+9nw5116718 0.3 10151769
18:00+9nw6106126 0.1 10171146
21:00+4wnw22814 0.1 102138
10 may, mon
mon1000:00+2w35875 0.0 102371
03:00+1wnw23870 0.0 102656
06:00+3wnw23774 0.0 102898
09:00+9nw23472 0.0 1029599
12:00+13w22404 0.0 10291369
15:00+14w233913 0.0 10291714
18:00+14ssw225543 0.0 1029247
21:00+10s2262100 0.0 103031
11 may, tue
tue1100:00+7ssw22705 0.0 103110
03:00+6s11735 0.0 103110
06:00+8s22745 0.0 103261
09:00+13sse235512 0.0 1032452
12:00+16se345219 0.0 10321008
15:00+18e335235 0.0 10301049
18:00+17e246316 0.0 1029665
21:00+11ese22845 0.0 103015
12 may, wed
wed1200:00+9ese238616 0.0 103059
03:00+8ese258686 0.0 103077
06:00+9e378351 0.0 1030185
09:00+14e47615 0.0 1029517
12:00+18ese56520 0.0 1028888
15:00+19ese465580 0.0 10271102
18:00+19ese37656 0.0 1027685
21:00+13e388345 0.0 1027135